Terug naar catalogus

NATO 2B

ActiefMilitairGEO
NORAD 4902·PAYLOAD· XX

Gelanceerd Feb 3, 1971 vanaf Cape Canaveral Space Force Station

Loading…

Volgende Passages

TLE

Source: Space-Track
1 04902U 71009A   26229.47035032 -.00000096  00000-0  00000-0 0  9993
2 04902   1.0097 241.5608 0003465 265.4368 243.4179  1.00271656119258

Volg NATO 2B in realtime met AllMySat

Download on the App Store